SWA3605 PHOG-PHLI

Flight info

Callsign SWA3605
Flight time 0h 37m
Altitude 26000
Route MAUI5 OGG LNY V16 NAPUA LIH
Aircraft B738/M-SDE2E3FGHIRWXY/LB1

Departure

Time 2026-04-16 05:20
Airport Kahului International Airport (PHOG)

Arrival

Time 2026-04-16 05:58
Airport Lihue Airport (PHLI)
Time Latitude Longitude Altitude Speed Heading
2026-04-16 05:03 20.89193 -156.43743 44 ft 0 kts 305°
2026-04-16 05:15 20.89189 -156.43736 44 ft 2 kts 305°
2026-04-16 05:16 20.89179 -156.43722 41 ft 2 kts 305°
2026-04-16 05:16 20.89170 -156.43707 42 ft 2 kts 304°
2026-04-16 05:16 20.89162 -156.43692 41 ft 2 kts 279°
2026-04-16 05:16 20.89163 -156.43678 42 ft 1 kts 220°
2026-04-16 05:17 20.89167 -156.43674 41 ft 0 kts 214°
2026-04-16 05:18 20.89166 -156.43675 41 ft 1 kts 214°
2026-04-16 05:18 20.89145 -156.43683 44 ft 6 kts 193°
2026-04-16 05:19 20.89081 -156.43698 44 ft 12 kts 193°
2026-04-16 05:19 20.88998 -156.43704 44 ft 12 kts 166°
2026-04-16 05:19 20.88950 -156.43637 42 ft 12 kts 101°
2026-04-16 05:19 20.89029 -156.43551 44 ft 39 kts 35°
2026-04-16 05:20 20.89479 -156.43214 46 ft 116 kts 36°
2026-04-16 05:20 20.90305 -156.42599 149 ft 167 kts 34°
2026-04-16 05:20 20.91281 -156.41898 903 ft 170 kts 23°
2026-04-16 05:20 20.92444 -156.41759 1655 ft 178 kts 348°
2026-04-16 05:21 20.93665 -156.42375 2001 ft 210 kts 331°
2026-04-16 05:21 20.94991 -156.43250 2199 ft 235 kts 330°
2026-04-16 05:21 20.96429 -156.44217 2502 ft 256 kts 329°
2026-04-16 05:21 20.97975 -156.45256 3053 ft 268 kts 329°
2026-04-16 05:22 20.99550 -156.46315 3989 ft 267 kts 329°
2026-04-16 05:22 21.01128 -156.47378 4871 ft 269 kts 329°
2026-04-16 05:22 21.02726 -156.48458 5677 ft 274 kts 329°
2026-04-16 05:22 21.04259 -156.49670 6473 ft 279 kts 312°
2026-04-16 05:23 21.05081 -156.51545 7243 ft 284 kts 278°
2026-04-16 05:23 21.04869 -156.53627 8082 ft 284 kts 251°
2026-04-16 05:23 21.03965 -156.55501 8916 ft 285 kts 237°
2026-04-16 05:23 21.02830 -156.57253 9735 ft 287 kts 234°
2026-04-16 05:24 21.01655 -156.58987 10448 ft 293 kts 234°
2026-04-16 05:24 21.00419 -156.60803 10643 ft 316 kts 234°
2026-04-16 05:24 20.99085 -156.62780 10817 ft 339 kts 234°
2026-04-16 05:24 20.97685 -156.64870 11187 ft 351 kts 234°
2026-04-16 05:25 20.96255 -156.67018 11821 ft 355 kts 234°
2026-04-16 05:25 20.94830 -156.69169 12585 ft 355 kts 234°
2026-04-16 05:25 20.93396 -156.71337 13338 ft 356 kts 235°
2026-04-16 05:25 20.91964 -156.73507 14072 ft 359 kts 235°
2026-04-16 05:26 20.90539 -156.75666 14719 ft 361 kts 235°
2026-04-16 05:26 20.89087 -156.77865 15399 ft 363 kts 235°
2026-04-16 05:26 20.87627 -156.80075 16080 ft 364 kts 235°
2026-04-16 05:26 20.86162 -156.82293 16742 ft 367 kts 235°
2026-04-16 05:27 20.84688 -156.84524 17394 ft 369 kts 235°
2026-04-16 05:27 20.83201 -156.86773 17979 ft 372 kts 235°
2026-04-16 05:27 20.81703 -156.89039 18588 ft 374 kts 235°
2026-04-16 05:27 20.80198 -156.91313 19141 ft 376 kts 235°
2026-04-16 05:28 20.78706 -156.93616 19651 ft 378 kts 239°
2026-04-16 05:28 20.77742 -156.96239 20127 ft 383 kts 257°
2026-04-16 05:28 20.77505 -156.99081 20670 ft 387 kts 270°
2026-04-16 05:28 20.78003 -157.01925 21164 ft 395 kts 284°
2026-04-16 05:29 20.78905 -157.04708 21667 ft 398 kts 286°
2026-04-16 05:29 20.79866 -157.07500 22113 ft 401 kts 286°
2026-04-16 05:29 20.80810 -157.10318 22548 ft 404 kts 285°
2026-04-16 05:29 20.81734 -157.13160 23027 ft 406 kts 285°
2026-04-16 05:30 20.82643 -157.15984 23473 ft 408 kts 285°
2026-04-16 05:30 20.83571 -157.18854 23880 ft 410 kts 285°
2026-04-16 05:30 20.84507 -157.21743 24248 ft 412 kts 285°
2026-04-16 05:30 20.85447 -157.24645 24620 ft 414 kts 285°
2026-04-16 05:31 20.86388 -157.27551 24986 ft 415 kts 285°
2026-04-16 05:31 20.87331 -157.30477 25351 ft 416 kts 285°
2026-04-16 05:31 20.88271 -157.33404 25752 ft 417 kts 285°
2026-04-16 05:31 20.89214 -157.36347 26062 ft 419 kts 284°
2026-04-16 05:32 20.90159 -157.39300 26076 ft 420 kts 284°
2026-04-16 05:32 20.91106 -157.42255 26085 ft 418 kts 284°
2026-04-16 05:32 20.92047 -157.45191 26096 ft 418 kts 284°
2026-04-16 05:32 20.92989 -157.48134 26100 ft 418 kts 284°
2026-04-16 05:33 20.93930 -157.51083 26101 ft 418 kts 284°
2026-04-16 05:33 20.94867 -157.54030 26100 ft 418 kts 284°
2026-04-16 05:33 20.95803 -157.56975 26098 ft 418 kts 284°
2026-04-16 05:33 20.96739 -157.59922 26099 ft 418 kts 284°
2026-04-16 05:34 20.97676 -157.62867 26099 ft 418 kts 284°
2026-04-16 05:34 20.98599 -157.65772 26098 ft 418 kts 284°
2026-04-16 05:34 20.99531 -157.68708 26100 ft 417 kts 284°
2026-04-16 05:34 21.00466 -157.71656 26100 ft 417 kts 284°
2026-04-16 05:35 21.01397 -157.74592 26098 ft 416 kts 284°
2026-04-16 05:35 21.02326 -157.77525 26103 ft 416 kts 284°
2026-04-16 05:35 21.03254 -157.80458 26102 ft 416 kts 284°
2026-04-16 05:35 21.04181 -157.83388 26104 ft 416 kts 284°
2026-04-16 05:36 21.05107 -157.86319 26107 ft 415 kts 284°
2026-04-16 05:36 21.06033 -157.89249 26103 ft 415 kts 284°
2026-04-16 05:36 21.06955 -157.92165 26093 ft 408 kts 284°
2026-04-16 05:36 21.07853 -157.94995 26094 ft 397 kts 284°
2026-04-16 05:37 21.08746 -157.97765 26101 ft 393 kts 284°
2026-04-16 05:37 21.09642 -158.00533 26118 ft 394 kts 284°
2026-04-16 05:37 21.10517 -158.03276 25962 ft 396 kts 284°
2026-04-16 05:37 21.11406 -158.06103 25591 ft 392 kts 284°
2026-04-16 05:38 21.12258 -158.08821 25115 ft 389 kts 284°
2026-04-16 05:38 21.13113 -158.11551 24651 ft 385 kts 284°
2026-04-16 05:38 21.13963 -158.14265 24152 ft 383 kts 284°
2026-04-16 05:38 21.14807 -158.16962 23645 ft 381 kts 284°
2026-04-16 05:39 21.15650 -158.19652 23075 ft 379 kts 284°
2026-04-16 05:39 21.16486 -158.22319 22553 ft 376 kts 284°
2026-04-16 05:39 21.17315 -158.24965 22058 ft 372 kts 284°
2026-04-16 05:39 21.18134 -158.27584 21573 ft 369 kts 284°
2026-04-16 05:40 21.18972 -158.30175 21089 ft 368 kts 287°
2026-04-16 05:40 21.20092 -158.32652 20483 ft 373 kts 296°
2026-04-16 05:40 21.21475 -158.35009 19955 ft 374 kts 297°
2026-04-16 05:40 21.22880 -158.37352 19453 ft 372 kts 297°
2026-04-16 05:41 21.24272 -158.39681 18979 ft 371 kts 297°
2026-04-16 05:41 21.25651 -158.42010 18464 ft 369 kts 297°
2026-04-16 05:41 21.27022 -158.44344 17866 ft 370 kts 297°
2026-04-16 05:41 21.28383 -158.46671 17362 ft 367 kts 297°
2026-04-16 05:42 21.29730 -158.48974 16881 ft 364 kts 297°
2026-04-16 05:42 21.30770 -158.50750 16424 ft 364 kts 298°
2026-04-16 05:42 21.32138 -158.53086 15923 ft 362 kts 298°
2026-04-16 05:42 21.33456 -158.55335 15466 ft 359 kts 298°
2026-04-16 05:43 21.34780 -158.57596 15013 ft 357 kts 298°
2026-04-16 05:43 21.36098 -158.59847 14567 ft 354 kts 298°
2026-04-16 05:43 21.37404 -158.62079 14110 ft 352 kts 298°
2026-04-16 05:43 21.38701 -158.64297 13646 ft 350 kts 299°
2026-04-16 05:44 21.39988 -158.66500 13162 ft 348 kts 299°
2026-04-16 05:44 21.41268 -158.68691 12701 ft 345 kts 299°
2026-04-16 05:44 21.42537 -158.70864 12261 ft 342 kts 299°
2026-04-16 05:44 21.43795 -158.73020 11820 ft 340 kts 300°
2026-04-16 05:45 21.45011 -158.75105 11379 ft 337 kts 300°
2026-04-16 05:45 21.46257 -158.77241 10968 ft 335 kts 300°
2026-04-16 05:45 21.47488 -158.79354 10664 ft 330 kts 300°
2026-04-16 05:45 21.48685 -158.81405 10502 ft 320 kts 300°
2026-04-16 05:46 21.49846 -158.83398 10359 ft 310 kts 300°
2026-04-16 05:46 21.50975 -158.85334 10226 ft 301 kts 300°
2026-04-16 05:46 21.52069 -158.87211 10097 ft 292 kts 300°
2026-04-16 05:46 21.53134 -158.89034 9895 ft 286 kts 300°
2026-04-16 05:47 21.54190 -158.90844 9579 ft 285 kts 300°
2026-04-16 05:47 21.55239 -158.92643 9279 ft 283 kts 300°
2026-04-16 05:47 21.56280 -158.94429 8983 ft 281 kts 300°
2026-04-16 05:47 21.57317 -158.96208 8687 ft 280 kts 300°
2026-04-16 05:48 21.58346 -158.97975 8392 ft 278 kts 301°
2026-04-16 05:48 21.59357 -158.99712 8109 ft 277 kts 301°
2026-04-16 05:48 21.60390 -159.01485 7803 ft 276 kts 301°
2026-04-16 05:48 21.61392 -159.03207 7518 ft 275 kts 301°
2026-04-16 05:49 21.62417 -159.04969 7216 ft 274 kts 301°
2026-04-16 05:49 21.63424 -159.06700 6931 ft 273 kts 301°
2026-04-16 05:49 21.64415 -159.08405 6650 ft 272 kts 301°
2026-04-16 05:49 21.65416 -159.10127 6345 ft 271 kts 301°
2026-04-16 05:50 21.66415 -159.11846 6044 ft 271 kts 301°
2026-04-16 05:50 21.67410 -159.13559 5751 ft 270 kts 302°
2026-04-16 05:50 21.68404 -159.15270 5450 ft 269 kts 302°
2026-04-16 05:50 21.69391 -159.16975 5164 ft 268 kts 302°
2026-04-16 05:51 21.70367 -159.18679 4887 ft 267 kts 302°
2026-04-16 05:51 21.71337 -159.20376 4601 ft 266 kts 302°
2026-04-16 05:51 21.72304 -159.22068 4313 ft 265 kts 302°
2026-04-16 05:51 21.73265 -159.23750 4127 ft 260 kts 302°
2026-04-16 05:52 21.74203 -159.25381 3996 ft 253 kts 302°
2026-04-16 05:52 21.75121 -159.26962 3909 ft 242 kts 303°
2026-04-16 05:52 21.75989 -159.28455 3803 ft 228 kts 303°
2026-04-16 05:52 21.76817 -159.29880 3727 ft 222 kts 303°
2026-04-16 05:53 21.77630 -159.31281 3606 ft 218 kts 303°
2026-04-16 05:53 21.78436 -159.32632 3360 ft 210 kts 309°
2026-04-16 05:53 21.79583 -159.33422 3255 ft 192 kts 351°
2026-04-16 05:53 21.80907 -159.33531 3038 ft 192 kts 358°
2026-04-16 05:54 21.82213 -159.33582 2792 ft 189 kts 359°
2026-04-16 05:54 21.83506 -159.33593 2560 ft 183 kts
2026-04-16 05:54 21.84759 -159.33593 2314 ft 177 kts
2026-04-16 05:54 21.85958 -159.33592 2086 ft 168 kts
2026-04-16 05:55 21.87078 -159.33592 1906 ft 153 kts
2026-04-16 05:55 21.88130 -159.33590 1688 ft 151 kts
2026-04-16 05:55 21.89175 -159.33591 1474 ft 150 kts 360°
2026-04-16 05:55 21.90214 -159.33592 1283 ft 147 kts
2026-04-16 05:56 21.91237 -159.33590 1114 ft 148 kts
2026-04-16 05:56 21.92273 -159.33590 932 ft 150 kts
2026-04-16 05:56 21.92964 -159.33591 802 ft 150 kts 360°
2026-04-16 05:56 21.94011 -159.33590 610 ft 150 kts
2026-04-16 05:57 21.95046 -159.33588 405 ft 147 kts
2026-04-16 05:57 21.96067 -159.33589 205 ft 147 kts
2026-04-16 05:57 21.97068 -159.33589 94 ft 131 kts
2026-04-16 05:57 21.97767 -159.33590 104 ft 70 kts
2026-04-16 05:58 21.98062 -159.33591 102 ft 29 kts 360°
2026-04-16 05:58 21.98168 -159.33681 102 ft 20 kts 305°
2026-04-16 05:58 21.98296 -159.33712 102 ft 19 kts 349°
2026-04-16 05:58 21.98390 -159.33789 102 ft 12 kts 314°
2026-04-16 05:59 21.98401 -159.33864 104 ft 12 kts 226°
2026-04-16 05:59 21.98342 -159.33925 106 ft 12 kts 225°
2026-04-16 05:59 21.98287 -159.33987 125 ft 11 kts 229°
2026-04-16 05:59 21.98233 -159.34047 113 ft 11 kts 225°
2026-04-16 06:00 21.98178 -159.34104 115 ft 12 kts 223°
2026-04-16 06:00 21.98097 -159.34188 117 ft 20 kts 224°
2026-04-16 06:00 21.97992 -159.34302 124 ft 21 kts 225°
2026-04-16 06:00 21.97889 -159.34412 128 ft 21 kts 225°
2026-04-16 06:01 21.97792 -159.34516 138 ft 16 kts 225°
2026-04-16 06:01 21.97732 -159.34600 142 ft 13 kts 274°
2026-04-16 06:01 21.97791 -159.34671 152 ft 12 kts 307°
2026-04-16 06:01 21.97761 -159.34748 152 ft 12 kts 224°
2026-04-16 06:02 21.97691 -159.34885 152 ft 10 kts 315°
2026-04-16 06:02 21.97710 -159.34905 152 ft 2 kts 315°
2026-04-16 06:02 21.97712 -159.34907 152 ft 0 kts 315°